Find Starlink 32792

NORAD ID: 62504 Int'l Des: 2025-003 Owner: SPXS Country: US Constellation: starlink operational
LEOCIRCULAR

当前视图

正在加载3D地球...

About Starlink 32792

Starlink 32792 (NORAD 62504) is a starlink constellation satellite (v2 mini) launched Jan 6, 2025 by SPXS of US. It operates in LEO, CIRCULAR orbit with a mass of 730.00 kg.

关于 Starlink 32792

正在加载描述...

即将过境

Passes for default location (London). Set your location on the main map for personalized predictions.

高度历史

Loading altitude history...

两行轨道根数

1 62504U 25003T 26169.16991846 .00016152 00000-0 59454-3 0 9990
2 62504 43.0011 81.0815 0001818 271.1293 88.9350 15.27614697 81925
Epoch: Jun 18, 2026 • Age: 16 hours

当前状态

高度 482.9 km
速度 7.63 km/s
星下点 -0.78°S, 42.55°E
发射日期 Jan 6, 2025
运行时间 1.4 years
类型 internet

技术详情

分类 Payload
质量 730.00 kg
干质量 700.00 kg
总质量 730.00 kg
长度 0.30 m
直径 4.10 m
跨度 29.00 m
形状 Box + pan
制造商 SPXS
平台类型 Starlink V2M
阶段状态 In Orbit
所有者/国家 SPXS/US

Most Searched